owner,sensor,date,latitude,longitude,vertical_datum,wind_speed,wind_to_direction,wind_speed_of_gust,qcFlag 
DISL,ioos:station:DISL:MHPA:1,2017-02-01T00:00:00Z,30.6671,-87.9365,8.5,4.81,171.4,-999.0,'1111122,1111122,1111122' 
DISL,ioos:station:DISL:MHPA:1,2017-02-01T00:30:00Z,30.6671,-87.9365,8.5,3.96,177.6,-999.0,'1111122,1111122,1111122' 
DISL,ioos:station:DISL:MHPA:1,2017-02-01T01:00:00Z,30.6671,-87.9365,8.5,3.29,159.2,-999.0,'1111122,1111122,1111122' 
DISL,ioos:station:DISL:MHPA:1,2017-02-01T01:30:00Z,30.6671,-87.9365,8.5,3.21,161.7,-999.0,'1111122,1111122,1111122' 
DISL,ioos:station:DISL:MHPA:1,2017-02-01T02:00:00Z,30.6671,-87.9365,8.5,4.62,162.9,-999.0,'1111122,1111122,1111122' 
DISL,ioos:station:DISL:MHPA:1,2017-02-01T02:30:00Z,30.6671,-87.9365,8.5,4.07,160.9,-999.0,'1111122,1111122,1111122' 
DISL,ioos:station:DISL:MHPA:1,2017-02-01T03:00:00Z,30.6671,-87.9365,8.5,3.3,156.6,-999.0,'1111122,1111122,1111122' 
DISL,ioos:station:DISL:MHPA:1,2017-02-01T03:30:00Z,30.6671,-87.9365,8.5,2.97,149.6,-999.0,'1111122,1111122,1111122' 
DISL,ioos:station:DISL:MHPA:1,2017-02-01T04:00:00Z,30.6671,-87.9365,8.5,3.47,145.6,-999.0,'1111122,1111122,1111122' 
DISL,ioos:station:DISL:MHPA:1,2017-02-01T04:30:00Z,30.6671,-87.9365,8.5,3.47,166.4,-999.0,'1111122,1111122,1111122' 
DISL,ioos:station:DISL:MHPA:1,2017-02-01T05:00:00Z,30.6671,-87.9365,8.5,3.33,166.0,-999.0,'1111122,1111122,1111122' 
DISL,ioos:station:DISL:MHPA:1,2017-02-01T05:30:00Z,30.6671,-87.9365,8.5,1.94,157.1,-999.0,'1111122,1111122,1111122' 
DISL,ioos:station:DISL:MHPA:1,2017-02-01T06:00:00Z,30.6671,-87.9365,8.5,2.93,154.9,-999.0,'1111122,1111122,1111122' 
DISL,ioos:station:DISL:MHPA:1,2017-02-01T06:30:00Z,30.6671,-87.9365,8.5,2.78,154.8,-999.0,'1111122,1111122,1111122' 
DISL,ioos:station:DISL:MHPA:1,2017-02-01T07:00:00Z,30.6671,-87.9365,8.5,2.41,156.9,-999.0,'1111122,1111122,1111122' 
DISL,ioos:station:DISL:MHPA:1,2017-02-01T07:30:00Z,30.6671,-87.9365,8.5,3.28,154.8,-999.0,'1111122,1111122,1111122' 
DISL,ioos:station:DISL:MHPA:1,2017-02-01T08:00:00Z,30.6671,-87.9365,8.5,3.41,156.2,-999.0,'1111122,1111122,1111122' 
DISL,ioos:station:DISL:MHPA:1,2017-02-01T08:30:00Z,30.6671,-87.9365,8.5,2.61,162.9,-999.0,'1111122,1111122,1111122' 
DISL,ioos:station:DISL:MHPA:1,2017-02-01T09:00:00Z,30.6671,-87.9365,8.5,2.31,148.9,-999.0,'1111122,1111122,1111122' 
DISL,ioos:station:DISL:MHPA:1,2017-02-01T09:30:00Z,30.6671,-87.9365,8.5,2.15,146.7,-999.0,'1111122,1111122,1111122' 
DISL,ioos:station:DISL:MHPA:1,2017-02-01T10:00:00Z,30.6671,-87.9365,8.5,2.08,148.7,-999.0,'1111122,1111122,1111122' 
DISL,ioos:station:DISL:MHPA:1,2017-02-01T10:30:00Z,30.6671,-87.9365,8.5,1.89,121.0,-999.0,'1111122,1111122,1111122' 
DISL,ioos:station:DISL:MHPA:1,2017-02-01T11:00:00Z,30.6671,-87.9365,8.5,1.44,104.4,-999.0,'1111122,1111122,1111122' 
DISL,ioos:station:DISL:MHPA:1,2017-02-01T11:30:00Z,30.6671,-87.9365,8.5,1.62,109.2,-999.0,'1111122,1111122,1111122' 
DISL,ioos:station:DISL:MHPA:1,2017-02-01T12:00:00Z,30.6671,-87.9365,8.5,1.62,117.2,-999.0,'1111122,1111122,1111122' 
DISL,ioos:station:DISL:MHPA:1,2017-02-01T12:30:00Z,30.6671,-87.9365,8.5,1.45,95.7,-999.0,'1111122,1111122,1111122' 
DISL,ioos:station:DISL:MHPA:1,2017-02-01T13:00:00Z,30.6671,-87.9365,8.5,1.73,104.8,-999.0,'1111122,1111122,1111122' 
DISL,ioos:station:DISL:MHPA:1,2017-02-01T13:30:00Z,30.6671,-87.9365,8.5,1.45,96.6,-999.0,'1111122,1111122,1111122' 
DISL,ioos:station:DISL:MHPA:1,2017-02-01T14:00:00Z,30.6671,-87.9365,8.5,1.59,113.2,-999.0,'1111122,1111122,1111122' 
DISL,ioos:station:DISL:MHPA:1,2017-02-01T14:30:00Z,30.6671,-87.9365,8.5,1.63,125.3,-999.0,'1111122,1111122,1111122' 
DISL,ioos:station:DISL:MHPA:1,2017-02-01T15:00:00Z,30.6671,-87.9365,8.5,2.75,157.1,-999.0,'1111122,1111122,1111122' 
DISL,ioos:station:DISL:MHPA:1,2017-02-01T15:30:00Z,30.6671,-87.9365,8.5,3.06,157.2,-999.0,'1111122,1111122,1111122' 
DISL,ioos:station:DISL:MHPA:1,2017-02-01T16:00:00Z,30.6671,-87.9365,8.5,3.18,161.9,-999.0,'1111122,1111122,1111122' 
DISL,ioos:station:DISL:MHPA:1,2017-02-01T16:30:00Z,30.6671,-87.9365,8.5,3.6,164.2,-999.0,'1111122,1111122,1111122' 
DISL,ioos:station:DISL:MHPA:1,2017-02-01T17:00:00Z,30.6671,-87.9365,8.5,3.4,167.6,-999.0,'1111122,1111122,1111122' 
DISL,ioos:station:DISL:MHPA:1,2017-02-01T17:30:00Z,30.6671,-87.9365,8.5,3.78,166.6,-999.0,'1111122,1111122,1111122' 
DISL,ioos:station:DISL:MHPA:1,2017-02-01T18:00:00Z,30.6671,-87.9365,8.5,4.52,159.7,-999.0,'1111122,1111122,1111122' 
DISL,ioos:station:DISL:MHPA:1,2017-02-01T18:30:00Z,30.6671,-87.9365,8.5,5.02,158.7,-999.0,'1111122,1111122,1111122' 
DISL,ioos:station:DISL:MHPA:1,2017-02-01T19:00:00Z,30.6671,-87.9365,8.5,5.94,160.5,-999.0,'1111122,1111122,1111122' 
DISL,ioos:station:DISL:MHPA:1,2017-02-01T19:30:00Z,30.6671,-87.9365,8.5,5.9,158.6,-999.0,'1111122,1111122,1111122' 
DISL,ioos:station:DISL:MHPA:1,2017-02-01T20:00:00Z,30.6671,-87.9365,8.5,6.72,161.1,-999.0,'1111122,1111122,1111122' 
DISL,ioos:station:DISL:MHPA:1,2017-02-01T20:30:00Z,30.6671,-87.9365,8.5,6.49,157.6,-999.0,'1111122,1111122,1111122' 
DISL,ioos:station:DISL:MHPA:1,2017-02-01T21:00:00Z,30.6671,-87.9365,8.5,6.08,160.1,-999.0,'1111122,1111122,1111122' 
DISL,ioos:station:DISL:MHPA:1,2017-02-01T21:30:00Z,30.6671,-87.9365,8.5,6.31,164.4,-999.0,'1111122,1111122,1111122' 
DISL,ioos:station:DISL:MHPA:1,2017-02-01T22:00:00Z,30.6671,-87.9365,8.5,6.04,160.0,-999.0,'1111122,1111122,1111122' 
DISL,ioos:station:DISL:MHPA:1,2017-02-01T22:30:00Z,30.6671,-87.9365,8.5,6.12,162.4,-999.0,'1111122,1111122,1111122' 
DISL,ioos:station:DISL:MHPA:1,2017-02-01T23:00:00Z,30.6671,-87.9365,8.5,5.83,168.6,-999.0,'1111122,1111122,1111122' 
DISL,ioos:station:DISL:MHPA:1,2017-02-01T23:30:00Z,30.6671,-87.9365,8.5,5.54,173.7,-999.0,'1111122,1111122,1111122' 
DISL,ioos:station:DISL:MHPA:1,2017-02-02T00:00:00Z,30.6671,-87.9365,8.5,3.93,164.3,-999.0,'1111122,1111122,1111122' 
DISL,ioos:station:DISL:MHPA:1,2017-02-02T00:30:00Z,30.6671,-87.9365,8.5,3.43,156.5,-999.0,'1111122,1111122,1111122' 
DISL,ioos:station:DISL:MHPA:1,2017-02-02T01:00:00Z,30.6671,-87.9365,8.5,2.83,149.7,-999.0,'1111122,1111122,1111122' 
DISL,ioos:station:DISL:MHPA:1,2017-02-02T01:30:00Z,30.6671,-87.9365,8.5,2.42,147.2,-999.0,'1111122,1111122,1111122' 
DISL,ioos:station:DISL:MHPA:1,2017-02-02T02:00:00Z,30.6671,-87.9365,8.5,2.46,126.6,-999.0,'1111122,1111122,1111122' 
DISL,ioos:station:DISL:MHPA:1,2017-02-02T02:30:00Z,30.6671,-87.9365,8.5,2.42,129.5,-999.0,'1111122,1111122,1111122' 
DISL,ioos:station:DISL:MHPA:1,2017-02-02T03:00:00Z,30.6671,-87.9365,8.5,2.66,132.8,-999.0,'1111122,1111122,1111122' 
DISL,ioos:station:DISL:MHPA:1,2017-02-02T03:30:00Z,30.6671,-87.9365,8.5,2.64,129.2,-999.0,'1111122,1111122,1111122' 
DISL,ioos:station:DISL:MHPA:1,2017-02-02T04:00:00Z,30.6671,-87.9365,8.5,2.48,131.3,-999.0,'1111122,1111122,1111122' 
DISL,ioos:station:DISL:MHPA:1,2017-02-02T04:30:00Z,30.6671,-87.9365,8.5,2.02,132.0,-999.0,'1111122,1111122,1111122' 
DISL,ioos:station:DISL:MHPA:1,2017-02-02T05:00:00Z,30.6671,-87.9365,8.5,1.86,127.1,-999.0,'1111122,1111122,1111122' 
DISL,ioos:station:DISL:MHPA:1,2017-02-02T05:30:00Z,30.6671,-87.9365,8.5,0.47,117.8,-999.0,'1111122,1111122,1111122' 
DISL,ioos:station:DISL:MHPA:1,2017-02-02T06:00:00Z,30.6671,-87.9365,8.5,0.0,0.0,-999.0,'1114422,1114422,1111122' 
DISL,ioos:station:DISL:MHPA:1,2017-02-02T06:30:00Z,30.6671,-87.9365,8.5,0.56,339.2,-999.0,'1111122,1111122,1111122' 
DISL,ioos:station:DISL:MHPA:1,2017-02-02T07:00:00Z,30.6671,-87.9365,8.5,0.79,17.77,-999.0,'1111122,1111122,1111122' 
DISL,ioos:station:DISL:MHPA:1,2017-02-02T07:30:00Z,30.6671,-87.9365,8.5,0.32,36.66,-999.0,'1111122,1111122,1111122' 
DISL,ioos:station:DISL:MHPA:1,2017-02-02T08:00:00Z,30.6671,-87.9365,8.5,0.32,69.64,-999.0,'1111122,1111122,1111122' 
DISL,ioos:station:DISL:MHPA:1,2017-02-02T08:30:00Z,30.6671,-87.9365,8.5,0.48,83.6,-999.0,'1111122,1111122,1111122' 
DISL,ioos:station:DISL:MHPA:1,2017-02-02T09:00:00Z,30.6671,-87.9365,8.5,0.07,138.8,-999.0,'1111122,1111122,1111122' 
DISL,ioos:station:DISL:MHPA:1,2017-02-02T09:30:00Z,30.6671,-87.9365,8.5,0.0,0.0,-999.0,'1114422,1114422,1111122' 
DISL,ioos:station:DISL:MHPA:1,2017-02-02T10:00:00Z,30.6671,-87.9365,8.5,0.51,27.27,-999.0,'1111122,1111122,1111122' 
DISL,ioos:station:DISL:MHPA:1,2017-02-02T10:30:00Z,30.6671,-87.9365,8.5,0.16,0.24,-999.0,'1111122,1111122,1111122' 
DISL,ioos:station:DISL:MHPA:1,2017-02-02T11:00:00Z,30.6671,-87.9365,8.5,0.0,25.58,-999.0,'1114422,1111122,1111122' 
DISL,ioos:station:DISL:MHPA:1,2017-02-02T11:30:00Z,30.6671,-87.9365,8.5,0.37,133.9,-999.0,'1111122,1111122,1111122' 
DISL,ioos:station:DISL:MHPA:1,2017-02-02T12:00:00Z,30.6671,-87.9365,8.5,0.0,0.0,-999.0,'1114422,1114422,1111122' 
DISL,ioos:station:DISL:MHPA:1,2017-02-02T12:30:00Z,30.6671,-87.9365,8.5,0.22,9.93,-999.0,'1111122,1111122,1111122' 
DISL,ioos:station:DISL:MHPA:1,2017-02-02T13:00:00Z,30.6671,-87.9365,8.5,0.0,0.0,-999.0,'1114422,1114422,1111122' 
DISL,ioos:station:DISL:MHPA:1,2017-02-02T14:00:00Z,30.6671,-87.9365,8.5,0.42,316.4,-999.0,'1111122,1111122,1111122' 
DISL,ioos:station:DISL:MHPA:1,2017-02-02T14:30:00Z,30.6671,-87.9365,8.5,0.15,293.3,-999.0,'1111122,1111122,1111122' 
DISL,ioos:station:DISL:MHPA:1,2017-02-02T15:00:00Z,30.6671,-87.9365,8.5,0.85,219.9,-999.0,'1111122,1111122,1111122' 
DISL,ioos:station:DISL:MHPA:1,2017-02-02T15:30:00Z,30.6671,-87.9365,8.5,0.0,0.0,-999.0,'1114422,1114422,1111122' 
DISL,ioos:station:DISL:MHPA:1,2017-02-02T16:00:00Z,30.6671,-87.9365,8.5,0.74,229.9,-999.0,'1111122,1111122,1111122' 
DISL,ioos:station:DISL:MHPA:1,2017-02-02T16:30:00Z,30.6671,-87.9365,8.5,0.75,183.1,-999.0,'1111122,1111122,1111122' 
DISL,ioos:station:DISL:MHPA:1,2017-02-02T17:00:00Z,30.6671,-87.9365,8.5,1.05,190.1,-999.0,'1111122,1111122,1111122' 
DISL,ioos:station:DISL:MHPA:1,2017-02-02T17:30:00Z,30.6671,-87.9365,8.5,1.04,174.0,-999.0,'1111122,1111122,1111122' 
DISL,ioos:station:DISL:MHPA:1,2017-02-02T18:00:00Z,30.6671,-87.9365,8.5,3.14,166.0,-999.0,'1111122,1111122,1111122' 
DISL,ioos:station:DISL:MHPA:1,2017-02-02T18:30:00Z,30.6671,-87.9365,8.5,3.57,168.5,-999.0,'1111122,1111122,1111122' 
DISL,ioos:station:DISL:MHPA:1,2017-02-02T19:00:00Z,30.6671,-87.9365,8.5,4.26,166.7,-999.0,'1111122,1111122,1111122' 
DISL,ioos:station:DISL:MHPA:1,2017-02-02T19:30:00Z,30.6671,-87.9365,8.5,3.51,171.7,-999.0,'1111122,1111122,1111122' 
DISL,ioos:station:DISL:MHPA:1,2017-02-02T20:00:00Z,30.6671,-87.9365,8.5,4.36,169.2,-999.0,'1111122,1111122,1111122' 
DISL,ioos:station:DISL:MHPA:1,2017-02-02T20:30:00Z,30.6671,-87.9365,8.5,4.29,170.8,-999.0,'1111122,1111122,1111122' 
DISL,ioos:station:DISL:MHPA:1,2017-02-02T21:00:00Z,30.6671,-87.9365,8.5,4.69,174.9,-999.0,'1111122,1111122,1111122' 
DISL,ioos:station:DISL:MHPA:1,2017-02-02T21:30:00Z,30.6671,-87.9365,8.5,5.72,168.8,-999.0,'1111122,1111122,1111122' 
DISL,ioos:station:DISL:MHPA:1,2017-02-02T22:00:00Z,30.6671,-87.9365,8.5,5.41,162.8,-999.0,'1111122,1111122,1111122' 
DISL,ioos:station:DISL:MHPA:1,2017-02-02T23:00:00Z,30.6671,-87.9365,8.5,5.61,158.9,-999.0,'1111122,1111122,1111122' 
DISL,ioos:station:DISL:MHPA:1,2017-02-02T23:30:00Z,30.6671,-87.9365,8.5,5.37,161.9,-999.0,'1111122,1111122,1111122' 
DISL,ioos:station:DISL:MHPA:1,2017-02-03T00:00:00Z,30.6671,-87.9365,8.5,4.82,157.3,-999.0,'1111122,1111122,1111122' 
DISL,ioos:station:DISL:MHPA:1,2017-02-03T00:30:00Z,30.6671,-87.9365,8.5,4.17,154.3,-999.0,'1111122,1111122,1111122' 
DISL,ioos:station:DISL:MHPA:1,2017-02-03T01:00:00Z,30.6671,-87.9365,8.5,3.89,159.0,-999.0,'1111122,1111122,1111122' 
DISL,ioos:station:DISL:MHPA:1,2017-02-03T01:30:00Z,30.6671,-87.9365,8.5,3.9,152.6,-999.0,'1111122,1111122,1111122' 
DISL,ioos:station:DISL:MHPA:1,2017-02-03T02:00:00Z,30.6671,-87.9365,8.5,2.86,150.9,-999.0,'1111122,1111122,1111122' 
DISL,ioos:station:DISL:MHPA:1,2017-02-03T02:30:00Z,30.6671,-87.9365,8.5,2.21,154.3,-999.0,'1111122,1111122,1111122' 
DISL,ioos:station:DISL:MHPA:1,2017-02-03T03:00:00Z,30.6671,-87.9365,8.5,1.92,161.0,-999.0,'1111122,1111122,1111122' 
DISL,ioos:station:DISL:MHPA:1,2017-02-03T03:30:00Z,30.6671,-87.9365,8.5,2.27,158.0,-999.0,'1111122,1111122,1111122' 
DISL,ioos:station:DISL:MHPA:1,2017-02-03T04:00:00Z,30.6671,-87.9365,8.5,1.45,203.6,-999.0,'1111122,1111122,1111122' 
DISL,ioos:station:DISL:MHPA:1,2017-02-03T04:30:00Z,30.6671,-87.9365,8.5,1.3,186.9,-999.0,'1111122,1111122,1111122' 
DISL,ioos:station:DISL:MHPA:1,2017-02-03T05:00:00Z,30.6671,-87.9365,8.5,1.84,158.9,-999.0,'1111122,1111122,1111122' 
DISL,ioos:station:DISL:MHPA:1,2017-02-03T05:30:00Z,30.6671,-87.9365,8.5,1.63,150.2,-999.0,'1111122,1111122,1111122' 
DISL,ioos:station:DISL:MHPA:1,2017-02-03T06:00:00Z,30.6671,-87.9365,8.5,1.53,127.8,-999.0,'1111122,1111122,1111122' 
DISL,ioos:station:DISL:MHPA:1,2017-02-03T06:30:00Z,30.6671,-87.9365,8.5,0.1,35.01,-999.0,'1111122,1111122,1111122' 
DISL,ioos:station:DISL:MHPA:1,2017-02-03T07:00:00Z,30.6671,-87.9365,8.5,1.55,1.198,-999.0,'1111122,1111122,1111122' 
DISL,ioos:station:DISL:MHPA:1,2017-02-03T07:30:00Z,30.6671,-87.9365,8.5,1.54,354.3,-999.0,'1111122,1111122,1111122' 
DISL,ioos:station:DISL:MHPA:1,2017-02-03T08:00:00Z,30.6671,-87.9365,8.5,1.68,355.5,-999.0,'1111122,1111122,1111122' 
DISL,ioos:station:DISL:MHPA:1,2017-02-03T08:30:00Z,30.6671,-87.9365,8.5,1.54,4.22,-999.0,'1111122,1111122,1111122' 
DISL,ioos:station:DISL:MHPA:1,2017-02-03T09:00:00Z,30.6671,-87.9365,8.5,1.11,357.6,-999.0,'1111122,1111122,1111122' 
DISL,ioos:station:DISL:MHPA:1,2017-02-03T09:30:00Z,30.6671,-87.9365,8.5,0.31,68.33,-999.0,'1111122,1111122,1111122' 
DISL,ioos:station:DISL:MHPA:1,2017-02-03T10:00:00Z,30.6671,-87.9365,8.5,0.0,0.0,-999.0,'1114422,1114422,1111122' 
DISL,ioos:station:DISL:MHPA:1,2017-02-03T10:30:00Z,30.6671,-87.9365,8.5,1.62,346.0,-999.0,'1111122,1111122,1111122' 
DISL,ioos:station:DISL:MHPA:1,2017-02-03T11:00:00Z,30.6671,-87.9365,8.5,1.71,349.5,-999.0,'1111122,1111122,1111122' 
DISL,ioos:station:DISL:MHPA:1,2017-02-03T11:30:00Z,30.6671,-87.9365,8.5,1.47,352.0,-999.0,'1111122,1111122,1111122' 
DISL,ioos:station:DISL:MHPA:1,2017-02-03T12:00:00Z,30.6671,-87.9365,8.5,1.8,353.4,-999.0,'1111122,1111122,1111122' 
DISL,ioos:station:DISL:MHPA:1,2017-02-03T12:30:00Z,30.6671,-87.9365,8.5,1.88,353.1,-999.0,'1111122,1111122,1111122' 
DISL,ioos:station:DISL:MHPA:1,2017-02-03T13:00:00Z,30.6671,-87.9365,8.5,2.56,352.0,-999.0,'1111122,1111122,1111122' 
DISL,ioos:station:DISL:MHPA:1,2017-02-03T13:30:00Z,30.6671,-87.9365,8.5,1.72,11.06,-999.0,'1111122,1111122,1111122' 
DISL,ioos:station:DISL:MHPA:1,2017-02-03T14:00:00Z,30.6671,-87.9365,8.5,1.44,6.199,-999.0,'1111122,1111122,1111122' 
DISL,ioos:station:DISL:MHPA:1,2017-02-03T14:30:00Z,30.6671,-87.9365,8.5,1.84,350.7,-999.0,'1111122,1111122,1111122' 
DISL,ioos:station:DISL:MHPA:1,2017-02-03T15:00:00Z,30.6671,-87.9365,8.5,3.16,338.2,-999.0,'1111122,1111122,1111122' 
DISL,ioos:station:DISL:MHPA:1,2017-02-03T15:30:00Z,30.6671,-87.9365,8.5,3.93,332.5,-999.0,'1111122,1111122,1111122' 
DISL,ioos:station:DISL:MHPA:1,2017-02-03T16:00:00Z,30.6671,-87.9365,8.5,5.04,327.4,-999.0,'1111122,1111122,1111122' 
DISL,ioos:station:DISL:MHPA:1,2017-02-03T16:30:00Z,30.6671,-87.9365,8.5,4.14,336.2,-999.0,'1111122,1111122,1111122' 
DISL,ioos:station:DISL:MHPA:1,2017-02-03T17:00:00Z,30.6671,-87.9365,8.5,4.39,339.9,-999.0,'1111122,1111122,1111122' 
DISL,ioos:station:DISL:MHPA:1,2017-02-03T17:30:00Z,30.6671,-87.9365,8.5,4.8,333.6,-999.0,'1111122,1111122,1111122' 
DISL,ioos:station:DISL:MHPA:1,2017-02-03T18:00:00Z,30.6671,-87.9365,8.5,4.48,350.0,-999.0,'1111122,1111122,1111122' 
DISL,ioos:station:DISL:MHPA:1,2017-02-03T18:30:00Z,30.6671,-87.9365,8.5,3.52,350.2,-999.0,'1111122,1111122,1111122' 
DISL,ioos:station:DISL:MHPA:1,2017-02-03T19:00:00Z,30.6671,-87.9365,8.5,4.67,335.8,-999.0,'1111122,1111122,1111122' 
DISL,ioos:station:DISL:MHPA:1,2017-02-03T19:30:00Z,30.6671,-87.9365,8.5,4.78,347.3,-999.0,'1111122,1111122,1111122' 
DISL,ioos:station:DISL:MHPA:1,2017-02-03T20:00:00Z,30.6671,-87.9365,8.5,4.74,343.2,-999.0,'1111122,1111122,1111122' 
DISL,ioos:station:DISL:MHPA:1,2017-02-03T20:30:00Z,30.6671,-87.9365,8.5,5.34,347.1,-999.0,'1111122,1111122,1111122' 
DISL,ioos:station:DISL:MHPA:1,2017-02-03T21:00:00Z,30.6671,-87.9365,8.5,4.26,343.1,-999.0,'1111122,1111122,1111122' 
DISL,ioos:station:DISL:MHPA:1,2017-02-03T21:30:00Z,30.6671,-87.9365,8.5,4.42,343.3,-999.0,'1111122,1111122,1111122' 
DISL,ioos:station:DISL:MHPA:1,2017-02-03T22:00:00Z,30.6671,-87.9365,8.5,4.62,347.3,-999.0,'1111122,1111122,1111122' 
DISL,ioos:station:DISL:MHPA:1,2017-02-03T22:30:00Z,30.6671,-87.9365,8.5,4.34,344.6,-999.0,'1111122,1111122,1111122' 
DISL,ioos:station:DISL:MHPA:1,2017-02-03T23:00:00Z,30.6671,-87.9365,8.5,4.09,344.9,-999.0,'1111122,1111122,1111122' 
DISL,ioos:station:DISL:MHPA:1,2017-02-03T23:30:00Z,30.6671,-87.9365,8.5,3.92,348.1,-999.0,'1111122,1111122,1111122' 
DISL,ioos:station:DISL:MHPA:1,2017-02-04T00:00:00Z,30.6671,-87.9365,8.5,2.24,12.69,-999.0,'1111122,1111122,1111122' 
DISL,ioos:station:DISL:MHPA:1,2017-02-04T00:30:00Z,30.6671,-87.9365,8.5,2.05,359.7,-999.0,'1111122,1111122,1111122' 
DISL,ioos:station:DISL:MHPA:1,2017-02-04T01:00:00Z,30.6671,-87.9365,8.5,1.64,19.67,-999.0,'1111122,1111122,1111122' 
DISL,ioos:station:DISL:MHPA:1,2017-02-04T01:30:00Z,30.6671,-87.9365,8.5,1.97,348.3,-999.0,'1111122,1111122,1111122' 
DISL,ioos:station:DISL:MHPA:1,2017-02-04T02:00:00Z,30.6671,-87.9365,8.5,2.5,349.9,-999.0,'1111122,1111122,1111122' 
DISL,ioos:station:DISL:MHPA:1,2017-02-04T02:30:00Z,30.6671,-87.9365,8.5,2.82,350.3,-999.0,'1111122,1111122,1111122' 
DISL,ioos:station:DISL:MHPA:1,2017-02-04T03:00:00Z,30.6671,-87.9365,8.5,2.38,351.9,-999.0,'1111122,1111122,1111122' 
DISL,ioos:station:DISL:MHPA:1,2017-02-04T03:30:00Z,30.6671,-87.9365,8.5,2.22,0.275,-999.0,'1111122,1111122,1111122' 
DISL,ioos:station:DISL:MHPA:1,2017-02-04T04:00:00Z,30.6671,-87.9365,8.5,1.64,5.473,-999.0,'1111122,1111122,1111122' 
DISL,ioos:station:DISL:MHPA:1,2017-02-04T04:30:00Z,30.6671,-87.9365,8.5,2.59,4.518,-999.0,'1111122,1111122,1111122' 
DISL,ioos:station:DISL:MHPA:1,2017-02-04T05:00:00Z,30.6671,-87.9365,8.5,3.74,1.497,-999.0,'1111122,1111122,1111122' 
DISL,ioos:station:DISL:MHPA:1,2017-02-04T05:30:00Z,30.6671,-87.9365,8.5,3.29,353.1,-999.0,'1111122,1111122,1111122' 
DISL,ioos:station:DISL:MHPA:1,2017-02-04T06:00:00Z,30.6671,-87.9365,8.5,3.47,9.06,-999.0,'1111122,1111122,1111122' 
DISL,ioos:station:DISL:MHPA:1,2017-02-04T06:30:00Z,30.6671,-87.9365,8.5,2.73,4.216,-999.0,'1111122,1111122,1111122' 
DISL,ioos:station:DISL:MHPA:1,2017-02-04T07:00:00Z,30.6671,-87.9365,8.5,2.84,357.8,-999.0,'1111122,1111122,1111122' 
DISL,ioos:station:DISL:MHPA:1,2017-02-04T07:30:00Z,30.6671,-87.9365,8.5,3.19,359.2,-999.0,'1111122,1111122,1111122' 
DISL,ioos:station:DISL:MHPA:1,2017-02-04T08:00:00Z,30.6671,-87.9365,8.5,2.77,2.358,-999.0,'1111122,1111122,1111122' 
DISL,ioos:station:DISL:MHPA:1,2017-02-04T08:30:00Z,30.6671,-87.9365,8.5,2.88,1.378,-999.0,'1111122,1111122,1111122' 
DISL,ioos:station:DISL:MHPA:1,2017-02-04T09:00:00Z,30.6671,-87.9365,8.5,3.48,0.566,-999.0,'1111122,1111122,1111122' 
DISL,ioos:station:DISL:MHPA:1,2017-02-04T09:30:00Z,30.6671,-87.9365,8.5,3.16,8.75,-999.0,'1111122,1111122,1111122' 
DISL,ioos:station:DISL:MHPA:1,2017-02-04T10:00:00Z,30.6671,-87.9365,8.5,3.1,358.0,-999.0,'1111122,1111122,1111122' 
DISL,ioos:station:DISL:MHPA:1,2017-02-04T10:30:00Z,30.6671,-87.9365,8.5,3.65,353.0,-999.0,'1111122,1111122,1111122' 
DISL,ioos:station:DISL:MHPA:1,2017-02-04T11:00:00Z,30.6671,-87.9365,8.5,3.33,347.3,-999.0,'1111122,1111122,1111122' 
DISL,ioos:station:DISL:MHPA:1,2017-02-04T11:30:00Z,30.6671,-87.9365,8.5,2.93,1.592,-999.0,'1111122,1111122,1111122' 
DISL,ioos:station:DISL:MHPA:1,2017-02-04T12:00:00Z,30.6671,-87.9365,8.5,2.96,353.6,-999.0,'1111122,1111122,1111122' 
DISL,ioos:station:DISL:MHPA:1,2017-02-04T12:30:00Z,30.6671,-87.9365,8.5,2.85,359.0,-999.0,'1111122,1111122,1111122' 
DISL,ioos:station:DISL:MHPA:1,2017-02-04T13:00:00Z,30.6671,-87.9365,8.5,2.11,5.241,-999.0,'1111122,1111122,1111122' 
DISL,ioos:station:DISL:MHPA:1,2017-02-04T13:30:00Z,30.6671,-87.9365,8.5,1.6,356.4,-999.0,'1111122,1111122,1111122' 
DISL,ioos:station:DISL:MHPA:1,2017-02-04T14:00:00Z,30.6671,-87.9365,8.5,2.8,28.98,-999.0,'1111122,1111122,1111122' 
DISL,ioos:station:DISL:MHPA:1,2017-02-04T14:30:00Z,30.6671,-87.9365,8.5,2.75,9.54,-999.0,'1111122,1111122,1111122' 
DISL,ioos:station:DISL:MHPA:1,2017-02-04T15:00:00Z,30.6671,-87.9365,8.5,3.27,39.51,-999.0,'1111122,1111122,1111122' 
DISL,ioos:station:DISL:MHPA:1,2017-02-04T15:30:00Z,30.6671,-87.9365,8.5,2.71,53.83,-999.0,'1111122,1111122,1111122' 
DISL,ioos:station:DISL:MHPA:1,2017-02-04T16:00:00Z,30.6671,-87.9365,8.5,2.12,8.6,-999.0,'1111122,1111122,1111122' 
DISL,ioos:station:DISL:MHPA:1,2017-02-04T16:30:00Z,30.6671,-87.9365,8.5,2.06,354.2,-999.0,'1111122,1111122,1111122' 
DISL,ioos:station:DISL:MHPA:1,2017-02-04T17:00:00Z,30.6671,-87.9365,8.5,2.18,348.0,-999.0,'1111122,1111122,1111122' 
DISL,ioos:station:DISL:MHPA:1,2017-02-04T17:30:00Z,30.6671,-87.9365,8.5,2.94,314.3,-999.0,'1111122,1111122,1111122' 
DISL,ioos:station:DISL:MHPA:1,2017-02-04T18:00:00Z,30.6671,-87.9365,8.5,2.13,338.3,-999.0,'1111122,1111122,1111122' 
DISL,ioos:station:DISL:MHPA:1,2017-02-04T18:30:00Z,30.6671,-87.9365,8.5,2.81,321.6,-999.0,'1111122,1111122,1111122' 
DISL,ioos:station:DISL:MHPA:1,2017-02-04T19:00:00Z,30.6671,-87.9365,8.5,2.63,311.5,-999.0,'1111122,1111122,1111122' 
DISL,ioos:station:DISL:MHPA:1,2017-02-04T19:30:00Z,30.6671,-87.9365,8.5,3.12,316.5,-999.0,'1111122,1111122,1111122' 
DISL,ioos:station:DISL:MHPA:1,2017-02-04T20:00:00Z,30.6671,-87.9365,8.5,3.44,284.0,-999.0,'1111122,1111122,1111122' 
DISL,ioos:station:DISL:MHPA:1,2017-02-04T20:30:00Z,30.6671,-87.9365,8.5,4.38,268.1,-999.0,'1111122,1111122,1111122' 
DISL,ioos:station:DISL:MHPA:1,2017-02-04T21:00:00Z,30.6671,-87.9365,8.5,4.57,278.7,-999.0,'1111122,1111122,1111122' 
DISL,ioos:station:DISL:MHPA:1,2017-02-04T21:30:00Z,30.6671,-87.9365,8.5,4.01,275.8,-999.0,'1111122,1111122,1111122' 
DISL,ioos:station:DISL:MHPA:1,2017-02-04T22:00:00Z,30.6671,-87.9365,8.5,3.15,245.2,-999.0,'1111122,1111122,1111122' 
DISL,ioos:station:DISL:MHPA:1,2017-02-04T22:30:00Z,30.6671,-87.9365,8.5,2.57,244.3,-999.0,'1111122,1111122,1111122' 
DISL,ioos:station:DISL:MHPA:1,2017-02-04T23:00:00Z,30.6671,-87.9365,8.5,1.79,244.6,-999.0,'1111122,1111122,1111122' 
DISL,ioos:station:DISL:MHPA:1,2017-02-04T23:30:00Z,30.6671,-87.9365,8.5,1.47,200.6,-999.0,'1111122,1111122,1111122' 
DISL,ioos:station:DISL:MHPA:1,2017-02-05T00:00:00Z,30.6671,-87.9365,8.5,0.11,27.06,-999.0,'1111122,1111122,1111122' 
DISL,ioos:station:DISL:MHPA:1,2017-02-05T00:30:00Z,30.6671,-87.9365,8.5,0.21,27.88,-999.0,'1111122,1111122,1111122' 
DISL,ioos:station:DISL:MHPA:1,2017-02-05T01:00:00Z,30.6671,-87.9365,8.5,1.01,62.02,-999.0,'1111122,1111122,1111122' 
DISL,ioos:station:DISL:MHPA:1,2017-02-05T01:30:00Z,30.6671,-87.9365,8.5,1.73,116.6,-999.0,'1111122,1111122,1111122' 
DISL,ioos:station:DISL:MHPA:1,2017-02-05T02:00:00Z,30.6671,-87.9365,8.5,1.75,109.9,-999.0,'1111122,1111122,1111122' 
DISL,ioos:station:DISL:MHPA:1,2017-02-05T02:30:00Z,30.6671,-87.9365,8.5,1.42,104.9,-999.0,'1111122,1111122,1111122' 
DISL,ioos:station:DISL:MHPA:1,2017-02-05T03:00:00Z,30.6671,-87.9365,8.5,1.31,102.8,-999.0,'1111122,1111122,1111122' 
DISL,ioos:station:DISL:MHPA:1,2017-02-05T03:30:00Z,30.6671,-87.9365,8.5,0.15,112.9,-999.0,'1111122,1111122,1111122' 
DISL,ioos:station:DISL:MHPA:1,2017-02-05T04:00:00Z,30.6671,-87.9365,8.5,0.39,62.51,-999.0,'1111122,1111122,1111122' 
DISL,ioos:station:DISL:MHPA:1,2017-02-05T04:30:00Z,30.6671,-87.9365,8.5,1.02,96.9,-999.0,'1111122,1111122,1111122' 
DISL,ioos:station:DISL:MHPA:1,2017-02-05T05:00:00Z,30.6671,-87.9365,8.5,0.76,58.11,-999.0,'1111122,1111122,1111122' 
DISL,ioos:station:DISL:MHPA:1,2017-02-05T05:30:00Z,30.6671,-87.9365,8.5,1.15,20.0,-999.0,'1111122,1111122,1111122' 
DISL,ioos:station:DISL:MHPA:1,2017-02-05T06:00:00Z,30.6671,-87.9365,8.5,0.34,300.1,-999.0,'1111122,1111122,1111122' 
DISL,ioos:station:DISL:MHPA:1,2017-02-05T06:30:00Z,30.6671,-87.9365,8.5,1.1,116.8,-999.0,'1111122,1111122,1111122' 